Flag for Chile Weather past 2 weeks in Santiago, Chile

Now
57 °F

Passing clouds.


Feels Like: 55 °F
Forecast: 53 / 62 °F
Wind: 10 mph from South

Location: Pudahuel

Current Time: Aug 5, 2015 at 7:39:18 AM

Latest Report: Aug 5, 2015 at 7:00 AM


Visibility: N/A

Pressure: 29.80 "Hg (27.83 "Hg at 576m altitude)

Humidity: 55%

Dew point: 41 °F

Location of SantiagoLocation

Historic Weather in Santiago — Graph

°F

Santiago temperature yesterday

Maximum temperature yesterday: 75 °F (at 4:00 PM)
Minimum temperature yesterday: 45 °F (at 5:00 AM)
Average temperature yesterday: 58 °F

Past Weeks' High & Low Weather Summary

 TemperatureHumidityPressure
High75 °F (Aug 4, 4:00 PM)100% (Jul 21, 8:00 AM)30.24 "Hg (Jul 21, 8:00 AM)
Low28 °F (Jul 21, 8:00 AM)22% (Jul 24, 4:00 PM)29.80 "Hg (Aug 5, 5:00 AM)
Average50 °F74%30.04 "Hg
* Reported Jul 21 6:00 AM — Aug 5 6:00 AM, Santiago, Weather by CustomWeather, © 2015

Note: Actual official high and low records may vary slightly from our data, if they occured in-between our weather recording intervals... More about our weather records

Advertising

Santiago weather history for previous 24 hours

 ConditionsComfort  
Time TempWeatherWind HumidityBarometerVisibility
6:00 AM
Wed, Aug 5
57 °FPassing clouds.7 mph55%29.80 "HgN/A
5:00 AM59 °FOvercast.7 mph55%29.80 "HgN/A
4:00 AM59 °FOvercast.12 mph55%29.83 "HgN/A
3:00 AM59 °FOvercast.6 mph55%29.86 "HgN/A
2:00 AM59 °FOvercast.6 mph59%29.86 "HgN/A
1:00 AM59 °FOvercast.3 mph59%29.86 "HgN/A
12:00 AM57 °FOvercast.6 mph63%29.89 "HgN/A
11:00 PM
Tue, Aug 4
59 °FOvercast.10 mph59%29.89 "HgN/A
10:00 PM61 °FOvercast.7 mph55%29.89 "HgN/A
9:00 PM63 °FOvercast.3 mph49%29.92 "HgN/A
8:00 PM64 °FMostly cloudy.12 mph46%29.92 "HgN/A
7:00 PM68 °FMostly cloudy.9 mph40%29.89 "HgN/A
6:00 PM72 °FBroken clouds.9 mph27%29.83 "HgN/A
5:00 PM75 °FBroken clouds.7 mph24%29.83 "HgN/A
4:00 PM75 °FScattered clouds.3 mph22%29.83 "HgN/A
3:00 PM73 °FScattered clouds.6 mph25%29.86 "HgN/A
2:00 PM70 °FPassing clouds.9 mph35%29.89 "HgN/A
1:00 PM70 °FScattered clouds.6 mph31%29.92 "HgN/A
12:00 PM59 °FPartly sunny.7 mph55%29.92 "HgN/A
11:00 AM52 °FPartly sunny.5 mph82%29.89 "Hg4 mi
10:00 AM48 °FPartly sunny.2 mph82%29.89 "Hg2 mi
9:00 AM48 °FPartly sunny.2 mph87%29.89 "Hg2 mi
8:00 AM46 °FOvercast.6 mph87%29.89 "Hg4 mi
7:00 AM46 °FFog.3 mph87%29.89 "Hg3 mi
Weather by CustomWeather, © 2015

See weather overviewHow to use our weather pages